Regional Weather Roundup
Issued by NWS Sterling, VA

Home | Current Version | Previous Version | Text Only | Print | Product List | Glossary On
Versions: 1 2 3 4 5 6 7 8 9 10 11 12 13 14 15 16 17 18 19 20 21 22 23 24 25 26 27
000
ASUS41 KLWX 161310
RWRLWX

REGIONAL WEATHER ROUNDUP
NATIONAL WEATHER SERVICE BALTIMORE MD/WASHINGTON DC
800 AM EST MON JAN 16 2017

Note: "FAIR" indicates few or no clouds below 12,000 feet
with no significant weather and/or obstructions to visibility.
 TC=TEMPERATURE CELSIUS

 * =Non NWS site. Station does not report precipitation (e.g. rain,
    snow, etc.), thunder, or fog.

DCZ001-MDZ009-015-VAZ040>042-051-053>054-161400-
WASHINGTON METRO

CITY           SKY/WX    TMP DP  RH WIND       PRES   REMARKS
WASHINGTON NAT CLOUDY    38  28  67 CALM      30.48R
DULLES         CLOUDY    38  27  64 SE5       30.45R
ANDREWS AFB    CLOUDY    36  27  71 CALM      30.45R
FT BELVOIR     CLOUDY    38  28  66 CALM      30.47R
QUANTICO       CLOUDY    40  34  79 MISG      30.47S
COLLEGE PARK*  CLOUDY    34  27  75 CALM      30.47S
LEESBURG*      CLOUDY    36  30  80 MISG      30.46S
MANASSAS*      CLOUDY   N/A N/A N/A CALM      30.46S
GAITHERSBURG*  CLOUDY    34  21  60 E3        30.49R

$$

MDZ006>007-011-014-161400-
BALTIMORE METRO

CITY           SKY/WX    TMP DP  RH WIND       PRES   REMARKS
BWI AIRPORT    CLOUDY    34  26  72 NE5       30.47R
MD SCIENCE CTR   N/A     35  22  58 MISG      30.48R
MARTIN STATE   MOCLDY    30  28  93 CALM      30.49S
ANNAPOLIS      CLOUDY    37  25  61 NE5       30.47S
FORT MEADE*    CLOUDY    34  28  80 CALM      30.49S

$$

MDZ012-015-019>023-161400-
MARYLAND EASTERN SHORE

CITY           SKY/WX    TMP DP  RH WIND       PRES   REMARKS
OCEAN CITY     CLOUDY    32  31  96 N5        30.46S
SALISBURY      CLOUDY    34  27  75 CALM      30.46R
BAY BRIDGE AP* CLOUDY    34  25  69 MISG      30.48S
CAMBRIDGE*     CLOUDY    34  28  80 CALM      30.47R
EASTON*        CLOUDY    34  27  75 MISG      30.50R

$$

MDZ017>025-161400-
SOUTHERN MARYLAND

CITY           SKY/WX    TMP DP  RH WIND       PRES   REMARKS
PATUXENT RIVER CLOUDY    38  31  76 E6        30.46R
ST INIGOES     NOT AVBL
LEONARDTOWN*   CLOUDY    37  32  81 CALM      30.47S

$$

MDZ003>005-161400-
NORTH CENTRAL MARYLAND

CITY           SKY/WX    TMP DP  RH WIND       PRES   REMARKS
FREDERICK*     CLOUDY    30  27  86 CALM      30.49S
HAGERSTOWN APT CLOUDY    30  22  72 NW3       30.42S
WESTMINSTER*     N/A     30  21  69 CALM      30.43S

$$

MDZ501>502-161400-
WESTERN MARYLAND

CITY           SKY/WX    TMP DP  RH WIND       PRES   REMARKS
OAKLAND*       FOG       30  30 100 SE8       30.29R VSB 1/2 WCI  23
CUMBERLAND*    CLOUDY    36  32  87 CALM      30.44S

$$

VAZ025>031-161400-
SHENANDOAH VALLEY

CITY           SKY/WX    TMP DP  RH WIND       PRES   REMARKS
WINCHESTER*    CLOUDY    32  27  80 N5        30.41S
FRONT ROYAL*   NOT AVBL
LURAY*         CLOUDY    37  30  75 CALM      30.40R
NEW MARKET*    CLOUDY    37  28  69 CALM      30.39R
STAUNTON*      CLOUDY    36  35  96 CALM      30.40S FOG
WAYNESBORO*    CLOUDY    37  36  95 SE6       30.38R

$$

WVZ021-048>050-054>055-161400-
EASTERN WEST VIRGINIA PANHANDLE

CITY           SKY/WX    TMP DP  RH WIND       PRES   REMARKS
MARTINSBURG    CLOUDY    33  24  69 N5        30.43R
PETERSBURG*    CLOUDY    38  32  79 CALM      30.39S

$$

VAZ036>039-050-161400-
CENTRAL FOOTHILLS

CITY           SKY/WX    TMP DP  RH WIND       PRES   REMARKS
CHARLOTTESVILL CLOUDY    39  36  89 CALM      30.42S
CULPEPER*      CLOUDY    39  33  77 CALM      30.46R
ORANGE*          N/A     37  37 100 CALM      30.45R
GORDONSVILLE*  CLOUDY    38  38 100 CALM      30.43S FOG
WARRENTON*     CLOUDY    39  28  63 CALM      30.44R

$$

VAZ055>057-161400-
NORTH AND CENTRAL PIEDMONT

CITY           SKY/WX    TMP DP  RH WIND       PRES   REMARKS
FREDERICKSBRG* CLOUDY    39  33  79 CALM      30.46R
STAFFORD*      CLOUDY    38  31  75 CALM      30.50R

$$

NCZ024-NYZ072-PAZ021-071-VAZ022-071-161400-
OTHER REGIONAL OBSERVATIONS

CITY           SKY/WX    TMP DP  RH WIND       PRES   REMARKS
NEW YORK CITY  CLEAR     31  18  58 N3        30.47S
PHILADELPHIA   CLOUDY    27  19  72 NW3       30.49R
PITTSBURGH     CLOUDY    25  23  92 CALM      30.33S
ROANOKE        DRIZZLE   39  37  92 SE6       30.42R
RICHMOND       CLOUDY    38  34  85 CALM      30.45R
RALEIGH        CLOUDY    44  30  57 E6        30.42R

$$

ANZ530>537-161400-
MARINE OBSERVATIONS

STATION/POSITION TIME  TEMP    WIND        PRES
                       AIR SEA DIR/SP/G
                 (UTC) (F)     (DEG/KT/KT) (MB)
THOMAS PT LIGHT  1200   35 38   70/  3/  3   N/A
BALT KEY BRIDGE  1248   33      30/  3/  3 1032.2R
COVE POINT       1248   36     140/  4/  5 1032.1R
LEWISETTA        1248   39 42  100/  4/  5 1031.3R
SOLOMONS ISLAND  1248   38 40   90/  5/  6   N/A
PINEY POINT      1248          110/  3/  4   N/A

$$





USA.gov is the U.S. government's official web portal to all federal, state and local government web resources and services.